Location: Erp
(42.9417°N, 1.2009°E)
Time: 14:39:45
(UTC+00:00)

COSMO-SKYMED 1 - Visible Passes

Search period start: 11 April 2026 00:00
Search period end: 21 April 2026 00:00
Orbit: 576 x 578 km, 97.9° (Epoch: 11 April)

Date Brightness Start Highest point End Pass type
(mag) Time Alt. Az. Time Alt. Az. Time Alt. Az.
14 Apr 6.4 04:10:01 10° ENE 04:10:55 11° ENE 04:11:51 10° NE visible
15 Apr 6.2 04:13:21 10° E 04:14:49 12° ENE 04:16:16 10° NE visible
15 Apr 3.9 19:00:23 10° N 19:04:18 44° WNW 19:08:11 10° SW visible
16 Apr 6.1 04:16:51 10° E 04:18:41 13° ENE 04:20:31 10° NE visible
16 Apr 4.1 19:04:20 10° N 19:08:11 40° WNW 19:12:01 10° SW visible
17 Apr 6.0 04:20:25 10° E 04:22:33 14° ENE 04:24:41 10° NNE visible
17 Apr 4.3 19:08:18 10° N 19:12:05 36° WNW 19:15:50 10° SW visible
18 Apr 5.9 04:24:02 10° E 04:26:25 15° ENE 04:28:48 10° NNE visible
18 Apr 4.5 19:12:16 10° N 19:15:58 33° WNW 19:19:38 10° SW visible
19 Apr 5.8 04:27:41 10° ESE 04:30:17 17° ENE 04:32:53 10° NNE visible
19 Apr 4.8 19:16:15 10° N 19:19:51 30° WNW 19:23:26 10° SW visible
20 Apr 5.8 04:31:21 10° ESE 04:34:08 18° ENE 04:36:56 10° NNE visible
20 Apr 4.9 19:20:13 10° N 19:23:43 28° WNW 19:27:12 10° SW visible
